Total_Precipitation_Accumulation
0.00 0.00 0.00 0.00 0.00 0.00 0.00 0.00 0.00 0.00 0.00 0.00 0.00 0.00 0.00 0.00 0.00 0.00 0.00 0.00 0.00 0.00 0.00 0.00 0.00 0.00 0.00 0.00 0.00 0.00 0.01 0.01 0.00 0.01 0.01 0.02 0.03 0.05 0.03 0.07 0.09 0.11 0.15 0.11 0.09 0.22 0.94 1.55 1.00 1.46 1.44 1.38 1.29 0.71 0.97 0.94 0.85 0.43 0.91 0.11 0.12 0.17 0.15 0.24 0.16 0.14 0.06 0.03 0.02 0.02 0.01 0.01 0.01 0.01 0.01 0.00 0.00 0.01 0.01 0.01 0.01 0.01 0.02 0.04 0.04 0.06
0.00 0.00 0.00 0.00 0.00 0.00 0.00 0.00 0.00 0.00 0.00 0.00 0.00 0.00 0.00 0.00 0.00 0.00 0.00 0.00 0.00 0.00 0.00 0.00 0.00 0.00 0.00 0.00 0.00 0.00 0.00 0.01 0.00 0.01 0.01 0.01 0.02 0.02 0.02 0.09 0.06 0.11 0.12 0.08 0.23 0.67 1.23 1.02 1.11 1.81 1.43 0.68 0.59 1.34 1.13 0.96 0.77 0.98 0.34 0.17 0.15 0.10 0.10 0.12 0.13 0.07 0.04 0.01 0.00 0.01 0.01 0.01 0.01 0.01 0.01 0.01 0.00 0.01 0.00 0.00 0.01 0.01 0.01 0.02 0.03 0.04
0.00 0.00 0.00 0.00 0.00 0.00 0.00 0.00 0.00 0.00 0.00 0.00 0.00 0.00 0.00 0.00 0.00 0.00 0.00 0.00 0.00 0.00 0.00 0.00 0.00 0.00 0.00 0.00 0.00 0.00 0.00 0.00 0.01 0.00 0.00 0.00 0.01 0.02 0.04 0.16 0.30 0.11 0.09 0.09 0.09 0.26 0.55 1.15 1.28 1.37 1.26 0.73 0.95 1.40 0.80 0.85 0.66 0.38 0.39 0.27 0.49 0.22 0.14 0.13 0.07 0.12 0.06 0.01 0.03 0.06 0.01 0.00 0.01 0.02 0.01 0.00 0.00 0.00 0.00 0.01 0.01 0.01 0.01 0.01 0.02 0.02
0.00 0.00 0.00 0.00 0.00 0.00 0.00 0.00 0.00 0.00 0.00 0.00 0.00 0.00 0.00 0.00 0.00 0.02 0.00 0.00 0.00 0.00 0.00 0.00 0.00 0.00 0.00 0.00 0.00 0.01 0.01 0.00 0.00 0.01 0.00 0.00 0.01 0.01 0.05 0.13 0.05 0.03 0.04 0.09 0.08 0.09 0.24 0.73 0.70 0.50 0.78 1.02 1.16 0.90 1.62 0.79 0.99 0.52 0.42 0.14 0.22 0.30 0.18 0.16 0.20 0.01 0.05 0.01 0.07 0.04 0.00 0.01 0.01 0.00 0.01 0.00 0.00 0.00 0.00 0.01 0.01 0.01 0.01 0.01 0.01 0.01
0.00 0.00 0.00 0.00 0.00 0.00 0.00 0.00 0.00 0.00 0.00 0.00 0.00 0.00 0.00 0.00 0.00 0.00 0.02 0.00 0.00 0.00 0.00 0.00 0.00 0.00 0.00 0.00 0.00 0.01 0.00 0.00 0.00 0.01 0.01 0.00 0.00 0.01 0.08 0.16 0.04 0.02 0.04 0.07 0.07 0.05 0.20 0.74 0.74 0.72 1.17 1.40 1.24 1.27 0.99 1.16 0.89 1.09 0.60 0.15 0.13 0.24 0.23 0.20 0.10 0.12 0.05 0.05 0.13 0.22 0.04 0.00 0.00 0.00 0.00 0.00 0.01 0.01 0.01 0.01 0.01 0.00 0.01 0.01 0.01 0.01
0.00 0.00 0.00 0.00 0.00 0.00 0.00 0.00 0.00 0.00 0.00 0.00 0.00 0.00 0.00 0.00 0.00 0.00 0.00 0.00 0.00 0.01 0.00 0.00 0.00 0.01 0.00 0.00 0.00 0.00 0.00 0.00 0.00 0.00 0.00 0.00 0.00 0.01 0.04 0.03 0.04 0.03 0.03 0.07 0.05 0.03 0.26 0.52 0.54 0.88 1.41 1.17 1.13 0.91 0.94 1.23 0.87 0.76 0.53 0.27 0.15 0.16 0.15 0.07 0.15 0.19 0.15 0.25 0.23 0.09 0.01 0.00 0.00 0.00 0.00 0.00 0.00 0.00 0.01 0.01 0.00 0.00 0.00 0.00 0.00 0.00
0.01 0.00 0.00 0.00 0.00 0.00 0.00 0.00 0.00 0.00 0.00 0.00 0.01 0.00 0.00 0.00 0.00 0.00 0.00 0.00 0.01 0.01 0.04 0.00 0.01 0.02 0.00 0.00 0.00 0.00 0.00 0.00 0.00 0.00 0.00 0.00 0.00 0.00 0.03 0.12 0.06 0.05 0.01 0.06 0.15 0.08 0.44 0.99 0.91 1.15 1.10 0.62 0.86 0.74 0.92 0.88 0.99 0.92 0.50 0.20 0.24 0.10 0.12 0.16 0.21 0.12 0.17 0.27 0.16 0.01 0.00 0.01 0.00 0.00 0.00 0.01 0.01 0.01 0.00 0.00 0.00 0.00 0.00 0.00 0.00 0.00
0.00 0.00 0.00 0.00 0.00 0.00 0.00 0.00 0.00 0.00 0.00 0.01 0.01 0.00 0.00 0.00 0.00 0.00 0.00 0.00 0.02 0.00 0.00 0.00 0.00 0.02 0.01 0.01 0.00 0.00 0.00 0.00 0.00 0.00 0.00 0.00 0.01 0.03 0.09 0.56 0.12 0.04 0.01 0.03 0.06 0.11 0.45 0.87 0.83 1.00 0.54 1.17 0.78 1.29 1.09 0.99 1.12 1.31 0.76 0.37 0.22 0.14 0.12 0.19 0.07 0.29 0.15 0.22 0.06 0.02 0.02 0.01 0.00 0.00 0.00 0.00 0.00 0.00 0.00 0.00 0.00 0.00 0.00 0.00 0.00 0.00
0.00 0.00 0.00 0.00 0.00 0.00 0.00 0.00 0.00 0.00 0.00 0.00 0.00 0.00 0.00 0.00 0.00 0.00 0.01 0.01 0.02 0.01 0.03 0.00 0.00 0.00 0.01 0.02 0.01 0.00 0.01 0.00 0.01 0.01 0.02 0.01 0.01 0.02 0.15 0.06 0.04 0.03 0.03 0.07 0.11 0.47 1.03 0.65 0.45 0.71 1.16 1.09 1.55 1.21 1.17 1.15 1.13 1.37 1.01 0.74 0.63 0.59 0.26 0.24 0.32 0.29 0.46 0.13 0.11 0.14 0.04 0.17 0.00 0.00 0.00 0.00 0.00 0.00 0.00 0.00 0.00 0.00 0.00 0.00 0.00 0.00
0.00 0.00 0.00 0.00 0.00 0.00 0.00 0.00 0.00 0.00 0.00 0.00 0.00 0.00 0.00 0.00 0.00 0.00 0.02 0.00 0.08 0.00 0.02 0.04 0.06 0.01 0.04 0.01 0.00 0.00 0.00 0.01 0.03 0.04 0.06 0.04 0.04 0.11 0.09 0.07 0.04 0.04 0.04 0.17 0.27 0.04 0.17 0.42 0.58 0.62 1.09 1.59 1.17 1.18 1.39 1.01 1.34 1.53 1.16 1.02 0.45 0.28 0.76 0.65 0.51 0.43 0.40 0.14 0.28 0.22 0.06 0.08 0.00 0.00 0.00 0.00 0.00 0.00 0.00 0.00 0.00 0.00 0.00 0.00 0.00 0.00
0.01 0.00 0.00 0.00 0.00 0.00 0.00 0.00 0.00 0.00 0.00 0.00 0.00 0.00 0.00 0.00 0.00 0.01 0.01 0.01 0.05 0.01 0.01 0.00 0.03 0.00 0.04 0.02 0.02 0.01 0.02 0.01 0.01 0.00 0.03 0.05 0.07 0.05 0.22 0.07 0.03 0.05 0.05 0.05 0.04 0.15 0.21 0.55 0.81 0.83 0.60 0.56 0.48 1.00 1.00 1.13 1.13 0.53 0.86 0.80 0.68 0.55 0.51 0.62 0.72 0.42 0.30 0.24 0.38 0.16 0.06 0.03 0.00 0.00 0.00 0.00 0.00 0.00 0.00 0.00 0.00 0.00 0.00 0.00 0.00 0.00
0.00 0.00 0.00 0.00 0.00 0.00 0.00 0.00 0.00 0.00 0.00 0.00 0.00 0.01 0.00 0.03 0.02 0.01 0.02 0.01 0.07 0.00 0.01 0.02 0.01 0.01 0.06 0.07 0.01 0.01 0.00 0.00 0.00 0.00 0.02 0.05 0.03 0.03 0.04 0.08 0.05 0.06 0.06 0.09 0.15 0.08 0.14 0.70 0.46 0.28 0.36 0.94 0.56 0.33 0.19 0.39 0.43 0.51 0.85 0.76 0.67 0.59 0.81 0.88 0.73 0.34 0.21 0.19 0.22 0.08 0.03 0.01 0.00 0.00 0.00 0.00 0.00 0.00 0.00 0.00 0.00 0.00 0.00 0.00 0.00 0.00
0.00 0.00 0.00 0.00 0.00 0.00 0.00 0.00 0.00 0.00 0.00 0.00 0.00 0.01 0.17 0.12 0.01 0.06 0.02 0.02 0.00 0.01 0.03 0.00 0.00 0.02 0.01 0.05 0.03 0.01 0.00 0.00 0.00 0.01 0.02 0.01 0.02 0.01 0.08 0.06 0.07 0.05 0.06 0.07 0.26 0.20 0.22 0.29 0.34 0.10 0.28 0.38 0.41 0.29 0.12 0.24 0.53 0.50 0.82 1.13 0.80 0.61 0.45 0.54 0.72 0.68 0.28 0.15 0.08 0.07 0.03 0.01 0.01 0.01 0.00 0.00 0.00 0.00 0.00 0.00 0.00 0.00 0.00 0.00 0.00 0.00
0.00 0.00 0.00 0.00 0.00 0.00 0.00 0.00 0.01 0.01 0.00 0.00 0.01 0.09 0.05 0.09 0.04 0.01 0.04 0.01 0.04 0.01 0.01 0.01 0.02 0.03 0.08 0.02 0.01 0.04 0.01 0.00 0.01 0.03 0.01 0.01 0.02 0.03 0.02 0.03 0.08 0.07 0.07 0.09 0.09 0.14 0.14 0.32 0.24 0.16 0.23 0.12 0.34 0.45 0.43 0.38 0.68 0.89 0.98 1.05 0.57 0.44 0.37 0.71 0.75 0.39 0.25 0.17 0.10 0.04 0.01 0.02 0.01 0.01 0.00 0.00 0.00 0.00 0.01 0.00 0.00 0.00 0.00 0.00 0.00 0.00
0.00 0.01 0.00 0.00 0.01 0.00 0.00 0.00 0.00 0.03 0.00 0.00 0.00 0.01 0.07 0.06 0.04 0.01 0.03 0.04 0.00 0.07 0.02 0.00 0.00 0.02 0.02 0.46 0.00 0.01 0.01 0.01 0.02 0.02 0.00 0.00 0.01 0.02 0.05 0.06 0.10 0.36 0.20 0.05 0.13 0.17 0.52 1.04 0.51 0.53 0.27 0.22 0.36 0.45 0.27 0.48 0.50 1.52 0.93 1.00 0.74 0.65 0.38 0.52 0.64 0.42 0.28 0.14 0.11 0.02 0.01 0.04 0.02 0.00 0.00 0.00 0.01 0.03 0.01 0.01 0.00 0.00 0.00 0.00 0.00 0.00
0.00 0.01 0.01 0.00 0.00 0.00 0.00 0.00 0.00 0.00 0.02 0.00 0.01 0.01 0.03 0.04 0.01 0.04 0.20 0.02 0.00 0.03 0.01 0.04 0.00 0.06 0.18 0.04 0.01 0.02 0.00 0.00 0.01 0.01 0.02 0.03 0.03 0.04 0.07 0.18 0.14 0.32 0.48 0.48 0.56 0.96 0.87 0.84 0.79 0.46 0.55 0.61 0.55 0.55 0.51 0.48 0.46 1.35 1.30 1.27 1.29 0.78 0.87 0.50 0.19 0.20 0.69 0.42 0.31 0.15 0.09 0.04 0.03 0.02 0.01 0.01 0.00 0.00 0.00 0.00 0.00 0.00 0.00 0.00 0.00 0.00
0.00 0.04 0.00 0.00 0.00 0.00 0.00 0.00 0.00 0.00 0.18 0.07 0.00 0.05 0.01 0.01 0.00 0.01 0.00 0.00 0.00 0.00 0.01 0.01 0.01 0.01 0.01 0.01 0.01 0.02 0.04 0.04 0.01 0.01 0.02 0.03 0.04 0.12 0.13 0.17 0.22 0.37 0.94 1.27 1.42 1.20 0.80 0.69 0.93 0.88 0.67 0.36 0.21 0.32 0.50 0.55 0.86 2.16 1.36 0.58 0.90 0.91 1.59 1.00 0.33 0.54 0.30 0.72 0.14 0.10 0.05 0.04 0.03 0.02 0.03 0.03 0.00 0.01 0.02 0.00 0.00 0.00 0.00 0.00 0.00 0.00
0.07 0.09 0.01 0.01 0.00 0.00 0.00 0.00 0.00 0.00 0.00 0.00 0.02 0.03 0.00 0.00 0.03 0.01 0.07 0.07 0.00 0.00 0.02 0.01 0.01 0.10 0.04 0.16 0.01 0.08 0.05 0.04 0.09 0.06 0.02 0.08 0.12 0.20 0.36 0.66 0.86 0.91 1.29 1.05 1.33 1.66 1.30 0.93 0.71 0.40 0.48 0.35 0.28 0.34 0.57 0.47 0.51 0.55 0.45 0.56 1.21 1.76 1.77 1.71 1.85 1.16 0.83 0.32 0.30 0.26 0.08 0.15 0.09 0.03 0.03 0.00 0.02 0.04 0.00 0.02 0.02 0.00 0.00 0.00 0.00 0.00
0.00 0.07 0.02 0.00 0.00 0.00 0.00 0.00 0.00 0.00 0.00 0.00 0.06 0.01 0.01 0.07 0.03 0.01 0.00 0.01 0.03 0.02 0.03 0.01 0.08 0.05 0.02 0.15 0.03 0.07 0.06 0.19 0.31 0.22 0.22 0.19 0.33 0.64 0.46 0.63 1.00 1.42 1.27 1.46 1.54 1.28 0.88 0.30 0.50 0.50 0.36 0.49 0.33 0.68 0.57 0.27 0.16 0.28 0.35 0.84 0.54 1.19 1.14 2.44 2.53 1.45 0.63 0.33 0.28 0.21 0.45 0.29 0.13 0.05 0.05 0.04 0.04 0.04 0.05 0.04 0.01 0.00 0.00 0.00 0.00 0.00
0.00 0.01 0.03 0.00 0.00 0.01 0.00 0.00 0.01 0.01 0.00 0.00 0.00 0.00 0.00 0.00 0.04 0.04 0.01 0.03 0.01 0.11 0.01 0.02 0.02 0.08 0.06 0.20 0.05 0.06 0.09 0.06 0.10 0.15 0.28 0.50 0.50 0.75 0.76 0.88 0.84 0.91 0.93 0.80 0.72 1.41 1.21 0.50 0.29 0.40 0.43 0.60 0.42 0.50 0.51 0.43 0.66 0.48 0.12 0.49 1.60 2.10 1.71 2.10 1.37 1.28 1.14 0.60 0.49 0.50 0.16 0.21 0.16 0.10 0.07 0.03 0.04 0.06 0.01 0.00 0.00 0.00 0.00 0.00 0.00 0.00
0.04 0.00 0.03 0.07 0.00 0.00 0.03 0.00 0.01 0.00 0.02 0.00 0.00 0.00 0.00 0.01 0.04 0.00 0.06 0.01 0.03 0.05 0.08 0.08 0.05 0.16 0.06 0.01 0.05 0.07 0.05 0.09 0.09 0.07 0.12 0.27 0.65 0.33 0.57 0.90 1.12 1.07 0.99 0.86 1.13 1.41 1.45 0.62 0.22 0.26 0.29 0.32 0.26 0.24 0.22 0.51 0.33 0.13 0.10 0.57 1.19 1.38 0.89 0.82 1.53 1.08 1.06 0.89 0.75 0.25 0.22 0.13 0.10 0.07 0.03 0.04 0.04 0.01 0.03 0.03 0.00 0.00 0.00 0.00 0.00 0.00
0.00 0.00 0.00 0.02 0.01 0.01 0.01 0.00 0.00 0.00 0.00 0.00 0.00 0.03 0.01 0.05 0.10 0.05 0.04 0.00 0.07 0.01 0.03 0.04 0.10 0.12 0.30 0.01 0.02 0.12 0.09 0.12 0.11 0.10 0.10 0.42 0.19 0.36 0.37 0.57 0.39 0.67 0.81 1.27 1.43 1.08 1.28 1.30 1.54 1.28 0.51 0.79 1.43 1.56 1.07 0.38 0.11 0.11 0.10 0.28 0.50 0.35 0.52 0.29 0.24 0.52 0.69 0.68 0.57 0.13 0.37 0.48 0.31 0.32 0.03 0.01 0.06 0.04 0.08 0.02 0.00 0.01 0.00 0.00 0.00 0.01
0.01 0.01 0.03 0.00 0.05 0.16 0.01 0.02 0.00 0.00 0.00 0.00 0.00 0.00 0.01 0.02 0.01 0.06 0.04 0.13 0.04 0.06 0.03 0.11 0.06 0.15 0.02 0.02 0.04 0.01 0.18 0.20 0.35 0.30 0.45 0.61 0.59 0.83 1.08 1.22 0.80 0.55 0.41 0.45 0.47 0.77 1.72 2.12 1.54 1.12 0.41 0.43 0.24 0.31 0.18 0.13 0.13 0.15 0.13 0.78 0.84 0.48 0.25 0.14 0.07 0.11 0.16 0.16 0.09 0.06 0.45 0.48 0.40 0.25 0.08 0.01 0.02 0.07 0.11 0.04 0.15 0.04 0.01 0.01 0.01 0.01
0.00 0.00 0.00 0.03 0.04 0.03 0.00 0.00 0.00 0.00 0.00 0.00 0.00 0.00 0.00 0.02 0.01 0.02 0.02 0.08 0.03 0.05 0.04 0.05 0.02 0.14 0.07 0.11 0.07 0.26 0.64 0.44 0.19 0.46 0.69 0.49 0.62 0.73 0.89 0.58 0.90 0.34 0.56 0.71 0.44 0.83 0.73 0.68 0.43 0.67 0.62 0.63 0.38 0.17 0.11 0.10 0.26 0.32 0.61 0.69 0.71 0.93 0.52 0.24 0.26 0.56 0.40 0.14 0.15 0.43 0.87 0.55 0.41 0.32 0.12 0.07 0.06 0.08 0.01 0.01 0.04 0.06 0.15 0.04 0.09 0.01
0.12 0.02 0.02 0.06 0.04 0.07 0.10 0.02 0.02 0.00 0.00 0.00 0.00 0.00 0.00 0.00 0.00 0.02 0.01 0.01 0.02 0.00 0.04 0.05 0.04 0.09 0.10 0.01 0.03 0.08 0.07 0.25 1.47 1.12 1.27 0.63 0.27 0.83 0.83 1.08 1.10 0.67 0.65 0.26 0.14 0.25 0.19 0.23 0.32 0.68 0.45 0.39 0.43 0.74 0.85 0.93 0.90 0.68 0.73 0.22 0.41 0.57 0.45 0.17 0.27 0.23 0.22 0.95 0.79 0.52 0.49 0.64 0.79 0.60 0.36 0.27 0.46 0.22 0.03 0.02 0.10 0.28 0.29 0.10 0.13 0.14
0.10 0.18 0.02 0.03 0.15 0.14 0.14 0.12 0.14 0.08 0.03 0.01 0.00 0.00 0.00 0.00 0.02 0.02 0.00 0.01 0.02 0.01 0.02 0.02 0.06 0.04 0.09 0.04 0.08 0.17 0.26 0.36 0.42 0.46 0.48 0.72 0.95 0.27 0.44 0.51 0.36 0.72 0.49 0.42 0.32 0.23 0.23 0.37 0.32 0.87 0.64 0.27 0.42 0.36 0.26 0.16 0.15 0.12 0.22 0.06 0.05 0.14 0.54 0.82 0.61 1.12 1.02 0.89 0.39 0.62 1.68 1.13 0.86 0.69 0.59 0.65 0.50 0.44 0.61 0.43 0.32 0.27 0.16 0.07 0.17 0.13
0.24 0.05 0.24 0.05 0.05 0.19 0.06 0.06 0.06 0.00 0.02 0.04 0.01 0.00 0.02 0.00 0.00 0.01 0.03 0.00 0.02 0.00 0.03 0.07 0.03 0.09 0.09 0.08 0.09 0.03 0.25 0.29 0.71 0.32 0.43 0.49 0.39 0.75 0.60 0.89 0.56 0.69 0.56 0.30 0.25 0.36 0.35 0.31 0.39 0.56 0.78 0.53 0.42 0.28 0.29 0.15 0.13 0.16 0.13 0.15 0.21 0.58 0.56 0.96 0.73 1.10 1.36 1.21 1.43 1.66 0.70 0.86 1.72 1.65 1.80 1.36 1.26 1.17 0.68 0.71 0.77 0.72 0.54 0.31 0.25 0.36
0.13 0.07 0.05 0.08 0.10 0.07 0.03 0.05 0.07 0.01 0.01 0.02 0.04 0.04 0.01 0.00 0.01 0.08 0.00 0.01 0.05 0.05 0.04 0.26 0.06 0.02 0.04 0.05 0.04 0.07 0.07 0.08 0.28 0.19 0.11 0.15 0.42 0.37 0.52 0.60 0.57 0.25 0.40 0.27 0.17 0.11 0.13 0.28 0.24 0.26 0.42 0.78 1.21 1.09 0.69 0.47 0.99 0.34 0.28 0.24 0.27 0.59 0.42 0.70 0.71 0.94 0.73 0.87 1.33 0.82 1.15 1.10 1.36 1.11 1.08 1.17 1.24 1.36 1.01 1.03 0.86 0.78 0.70 0.75 0.51 0.56
0.12 0.17 0.11 0.08 0.07 0.11 0.16 0.05 0.03 0.05 0.01 0.01 0.02 0.06 0.08 0.03 0.01 0.02 0.00 0.00 0.08 0.02 0.01 0.10 0.09 0.01 0.04 0.04 0.03 0.04 0.02 0.09 0.18 0.22 0.18 0.22 0.13 0.06 0.10 0.16 0.29 0.18 0.17 0.26 0.12 0.08 0.18 0.06 0.08 0.13 0.41 0.37 0.59 0.34 0.27 0.20 0.23 0.57 0.48 0.24 0.16 0.29 0.37 0.38 0.33 0.14 0.39 0.40 0.53 1.01 0.79 1.05 1.06 0.70 0.68 0.88 1.25 1.33 1.32 1.04 0.79 0.65 0.59 0.48 0.39 0.41
0.04 0.13 0.17 0.13 0.14 0.11 0.07 0.05 0.07 0.03 0.03 0.02 0.04 0.02 0.04 0.04 0.07 0.06 0.02 0.02 0.03 0.05 0.04 0.09 0.02 0.03 0.07 0.11 0.02 0.03 0.02 0.12 0.22 0.19 0.19 0.09 0.06 0.23 0.07 0.09 0.07 0.22 0.11 0.08 0.18 0.21 0.15 0.09 0.06 0.05 0.07 0.08 0.06 0.26 0.14 0.10 0.13 0.08 0.05 0.14 0.13 0.14 0.20 0.32 0.39 0.19 0.32 0.37 0.28 0.53 0.89 0.65 0.56 0.91 0.77 1.30 0.82 0.57 0.75 0.77 0.72 0.49 0.41 0.48 0.48 0.33
0.11 0.11 0.04 0.31 0.36 0.12 0.24 0.18 0.17 0.11 0.09 0.09 0.03 0.03 0.03 0.04 0.11 0.07 0.27 0.34 0.08 0.06 0.15 0.02 0.04 0.05 0.14 0.08 0.06 0.05 0.03 0.09 0.59 0.47 0.38 0.18 0.07 0.22 0.16 0.04 0.03 0.06 0.11 0.10 0.09 0.27 0.25 0.05 0.07 0.05 0.05 0.08 0.15 0.20 0.16 0.30 0.18 0.09 0.04 0.06 0.10 0.20 0.07 0.18 0.54 0.23 0.21 0.45 0.23 0.71 0.69 0.76 1.45 1.18 1.61 1.20 0.50 0.67 0.92 0.45 0.45 0.32 0.09 0.10 0.12 0.22
0.06 0.21 0.03 0.12 0.16 0.32 0.14 0.28 0.41 0.43 0.26 0.10 0.06 0.05 0.09 0.12 0.09 0.02 0.03 0.11 0.20 0.18 0.22 0.18 0.12 0.08 0.27 0.22 0.32 0.07 0.02 0.03 0.07 0.16 0.17 0.02 0.01 0.02 0.03 0.10 0.05 0.31 0.41 0.74 0.62 0.34 0.13 0.05 0.06 0.02 0.01 0.15 0.21 0.08 0.17 0.32 0.26 0.46 0.41 0.11 0.06 0.11 0.10 0.12 0.09 0.21 0.41 0.26 0.25 0.36 0.54 0.57 0.35 0.70 0.82 0.67 0.51 0.40 0.86 0.61 0.41 0.39 0.37 0.21 0.34 0.80
0.24 0.16 0.16 0.45 0.07 0.12 0.23 0.19 0.15 0.23 0.17 0.17 0.10 0.07 0.05 0.06 0.04 0.05 0.03 0.06 0.13 0.10 0.28 0.35 0.20 0.15 0.13 0.10 0.05 0.12 0.02 0.05 0.15 0.02 0.02 0.01 0.01 0.02 0.03 0.04 0.06 0.05 0.06 0.11 0.52 0.57 0.33 0.33 0.37 0.26 0.16 0.03 0.33 0.09 0.09 0.11 0.17 0.05 0.03 0.08 0.21 0.05 0.13 0.06 0.08 0.17 0.05 0.07 0.03 0.08 0.06 0.22 0.16 0.07 0.22 0.21 0.16 0.18 0.36 0.38 0.18 0.27 0.45 0.48 0.34 0.24
0.50 0.29 0.12 0.15 0.20 0.43 0.24 0.50 0.18 0.17 0.24 0.15 0.21 0.07 0.05 0.03 0.02 0.03 0.05 0.04 0.06 0.05 0.16 0.13 0.59 0.23 0.16 0.46 0.47 0.08 0.05 0.05 0.20 0.20 0.02 0.08 0.21 0.19 0.10 0.07 0.13 0.41 0.24 0.60 0.55 0.79 0.69 0.74 1.08 0.58 0.80 0.34 0.41 0.07 0.09 0.25 0.16 0.38 0.14 0.07 0.18 0.21 0.20 0.08 0.04 0.01 0.04 0.01 0.02 0.05 0.00 0.00 0.07 0.23 0.10 0.09 0.02 0.07 0.11 0.06 0.09 0.25 0.33 0.27 0.22 0.27
0.09 0.21 0.14 0.13 0.24 0.13 0.22 0.36 0.33 0.25 0.21 0.11 0.13 0.11 0.05 0.05 0.02 0.00 0.04 0.03 0.03 0.04 0.08 0.13 0.20 0.35 0.19 0.36 0.34 0.65 0.44 0.50 0.17 0.59 0.27 0.16 0.13 0.31 0.51 0.41 0.43 0.58 0.65 0.76 0.48 0.39 0.64 1.28 0.92 0.25 0.86 0.33 0.53 0.57 0.10 0.16 0.05 0.10 0.03 0.07 0.21 0.04 0.04 0.06 0.07 0.01 0.00 0.00 0.00 0.01 0.00 0.00 0.00 0.00 0.00 0.00 0.00 0.02 0.08 0.17 0.13 0.02 0.05 0.05 0.10 0.21
0.04 0.08 0.11 0.07 0.07 0.09 0.17 0.27 0.27 0.45 0.14 0.28 0.48 0.43 0.18 0.08 0.07 0.04 0.02 0.01 0.02 0.02 0.02 0.02 0.07 0.06 0.29 0.40 0.29 0.38 0.42 0.32 0.38 0.45 0.55 0.48 0.46 0.81 0.98 1.22 1.08 0.83 0.74 0.79 0.82 0.84 0.96 0.67 0.66 0.95 0.86 0.46 0.19 0.26 0.45 0.34 0.22 0.06 0.14 0.13 0.06 0.02 0.00 0.00 0.00 0.00 0.00 0.00 0.00 0.02 0.02 0.00 0.00 0.00 0.01 0.00 0.00 0.00 0.01 0.01 0.03 0.04 0.04 0.03 0.03 0.08
0.12 0.13 0.04 0.14 0.14 0.13 0.10 0.16 0.16 0.28 0.18 0.14 0.16 0.19 0.49 0.23 0.11 0.30 0.08 0.07 0.08 0.06 0.04 0.05 0.16 0.25 0.26 0.16 0.25 0.46 0.40 0.46 0.65 0.57 0.63 0.91 0.88 0.76 0.64 0.99 0.69 0.43 0.63 0.66 0.36 0.30 0.34 0.79 0.93 1.08 1.08 1.00 0.82 0.42 0.52 0.47 0.61 0.17 0.24 0.44 0.26 0.05 0.03 0.06 0.01 0.02 0.02 0.04 0.01 0.01 0.01 0.00 0.00 0.00 0.00 0.00 0.00 0.00 0.00 0.00 0.01 0.01 0.02 0.02 0.02 0.02
0.09 0.01 0.38 0.03 0.20 0.02 0.11 0.20 0.26 0.14 0.28 0.30 0.23 0.37 0.10 0.34 0.16 0.16 0.09 0.11 0.26 0.16 0.06 0.03 0.06 0.22 0.29 0.42 0.51 0.25 0.34 0.43 0.42 0.30 0.26 0.36 0.46 0.69 0.56 1.00 0.94 0.59 0.53 0.49 0.41 0.67 0.60 0.63 0.55 0.42 0.50 0.76 0.64 0.49 0.38 0.35 0.45 0.47 0.39 0.55 0.60 0.23 0.30 0.31 0.16 0.12 0.06 0.10 0.04 0.02 0.00 0.00 0.00 0.00 0.00 0.00 0.00 0.00 0.00 0.00 0.00 0.00 0.00 0.01 0.02 0.02
0.06 0.01 0.05 0.00 0.10 0.01 0.05 0.08 0.11 0.17 0.24 0.14 0.25 0.13 0.18 0.20 0.33 0.34 0.06 0.20 0.43 0.44 0.17 0.09 0.08 0.07 0.18 0.23 0.27 0.31 0.36 0.46 0.49 0.42 0.40 0.44 0.37 0.39 0.49 0.58 0.48 0.50 0.43 0.57 0.39 0.24 0.17 0.12 0.13 0.12 0.20 0.16 0.20 0.18 0.17 0.17 0.12 0.12 0.20 0.17 0.08 0.11 0.42 0.32 0.15 0.34 0.34 0.02 0.04 0.02 0.01 0.00 0.00 0.01 0.00 0.00 0.00 0.00 0.00 0.01 0.01 0.00 0.00 0.00 0.00 0.01
0.09 0.03 0.17 0.08 0.05 0.06 0.10 0.14 0.25 0.27 0.15 0.10 0.04 0.05 0.04 0.06 0.34 0.43 0.24 0.18 0.27 0.18 0.15 0.19 0.31 0.11 0.05 0.21 0.06 0.15 0.27 0.46 0.45 0.46 0.49 0.54 0.47 0.48 0.44 0.54 0.65 0.58 0.39 0.27 0.25 0.16 0.13 0.09 0.02 0.02 0.03 0.03 0.00 0.01 0.02 0.08 0.03 0.07 0.08 0.13 0.04 0.05 0.07 0.11 0.20 0.12 0.09 0.11 0.04 0.11 0.13 0.08 0.01 0.00 0.01 0.02 0.00 0.03 0.04 0.02 0.01 0.00 0.00 0.00 0.00 0.02
0.09 0.33 0.26 0.18 0.09 0.16 0.05 0.16 0.08 0.05 0.04 0.02 0.03 0.01 0.01 0.03 0.05 0.16 0.21 0.28 0.06 0.12 0.07 0.07 0.13 0.08 0.06 0.26 0.13 0.06 0.10 0.22 0.25 0.49 0.26 0.32 0.33 0.31 0.36 0.35 0.39 0.31 0.26 0.13 0.05 0.03 0.03 0.02 0.06 0.08 0.01 0.00 0.00 0.01 0.00 0.00 0.00 0.01 0.02 0.04 0.03 0.10 0.06 0.02 0.02 0.01 0.02 0.02 0.01 0.02 0.02 0.02 0.04 0.04 0.10 0.05 0.06 0.01 0.01 0.02 0.00 0.00 0.00 0.01 0.02 0.03
0.36 0.43 0.04 0.03 0.08 0.11 0.19 0.14 0.23 0.36 0.28 0.03 0.02 0.01 0.11 0.03 0.10 0.19 0.12 0.04 0.06 0.11 0.09 0.06 0.05 0.04 0.08 0.06 0.21 0.08 0.09 0.09 0.20 0.15 0.12 0.13 0.14 0.20 0.18 0.15 0.17 0.12 0.07 0.03 0.02 0.02 0.03 0.01 0.01 0.00 0.02 0.00 0.00 0.00 0.00 0.00 0.00 0.00 0.00 0.00 0.00 0.01 0.01 0.02 0.02 0.02 0.02 0.00 0.00 0.00 0.00 0.01 0.01 0.01 0.00 0.00 0.00 0.00 0.00 0.00 0.01 0.01 0.04 0.01 0.03 0.01
0.11 0.08 0.13 0.06 0.04 0.02 0.06 0.15 0.28 0.26 0.77 0.01 0.08 0.05 0.21 0.04 0.17 0.03 0.02 0.03 0.04 0.16 0.15 0.09 0.07 0.09 0.07 0.30 0.17 0.19 0.14 0.13 0.14 0.14 0.11 0.08 0.06 0.04 0.04 0.05 0.06 0.09 0.06 0.03 0.01 0.01 0.01 0.01 0.00 0.00 0.01 0.00 0.01 0.01 0.00 0.01 0.01 0.00 0.00 0.00 0.00 0.00 0.00 0.00 0.00 0.00 0.01 0.01 0.00 0.02 0.00 0.00 0.00 0.00 0.00 0.00 0.00 0.00 0.00 0.01 0.00 0.01 0.01 0.02 0.04 0.03
0.02 0.07 0.11 0.08 0.05 0.08 0.11 0.12 0.26 0.25 0.09 0.06 0.02 0.06 0.23 0.05 0.04 0.03 0.01 0.04 0.05 0.07 0.16 0.22 0.13 0.10 0.07 0.13 0.17 0.25 0.19 0.12 0.11 0.08 0.02 0.01 0.00 0.00 0.00 0.00 0.01 0.01 0.02 0.01 0.01 0.01 0.00 0.00 0.00 0.00 0.00 0.00 0.00 0.00 0.00 0.00 0.00 0.00 0.00 0.00 0.00 0.00 0.00 0.00 0.00 0.00 0.00 0.00 0.00 0.00 0.01 0.01 0.00 0.00 0.00 0.00 0.00 0.00 0.00 0.01 0.02 0.01 0.01 0.01 0.01 0.03
0.02 0.03 0.00 0.05 0.11 0.08 0.13 0.11 0.06 0.01 0.01 0.01 0.03 0.03 0.07 0.07 0.05 0.05 0.08 0.06 0.05 0.04 0.07 0.14 0.20 0.17 0.08 0.10 0.13 0.26 0.26 0.17 0.11 0.04 0.00 0.00 0.00 0.00 0.00 0.00 0.00 0.00 0.00 0.00 0.00 0.00 0.00 0.00 0.00 0.00 0.01 0.00 0.00 0.00 0.00 0.00 0.00 0.00 0.00 0.00 0.00 0.00 0.00 0.00 0.00 0.00 0.00 0.00 0.00 0.00 0.00 0.00 0.06 0.02 0.10 0.01 0.01 0.01 0.02 0.09 0.21 0.01 0.01 0.01 0.01 0.02
0.00 0.00 0.00 0.01 0.01 0.03 0.06 0.07 0.07 0.06 0.04 0.03 0.02 0.03 0.02 0.02 0.03 0.04 0.04 0.14 0.11 0.12 0.04 0.12 0.14 0.09 0.04 0.04 0.07 0.14 0.21 0.15 0.05 0.01 0.00 0.00 0.00 0.00 0.00 0.00 0.00 0.00 0.00 0.00 0.00 0.00 0.00 0.00 0.00 0.00 0.00 0.00 0.00 0.00 0.00 0.00 0.00 0.00 0.00 0.00 0.00 0.00 0.00 0.00 0.00 0.00 0.00 0.00 0.00 0.00 0.00 0.00 0.00 0.00 0.00 0.02 0.21 0.02 0.02 0.02 0.04 0.18 0.36 0.14 0.06 0.07
0.00 0.00 0.02 0.01 0.03 0.01 0.02 0.01 0.02 0.04 0.04 0.03 0.03 0.03 0.03 0.02 0.03 0.02 0.04 0.06 0.07 0.06 0.07 0.07 0.09 0.08 0.09 0.08 0.08 0.08 0.10 0.09 0.05 0.02 0.01 0.00 0.00 0.00 0.00 0.00 0.00 0.00 0.00 0.00 0.00 0.00 0.00 0.00 0.00 0.00 0.00 0.00 0.00 0.00 0.00 0.00 0.00 0.00 0.00 0.00 0.00 0.00 0.00 0.00 0.00 0.00 0.00 0.00 0.00 0.00 0.00 0.00 0.01 0.01 0.02 0.06 0.01 0.09 0.02 0.06 0.11 0.08 0.08 0.45 0.31 0.66
0.02 0.00 0.03 0.03 0.05 0.03 0.03 0.00 0.00 0.00 0.00 0.00 0.00 0.00 0.01 0.01 0.00 0.00 0.01 0.01 0.03 0.06 0.10 0.11 0.10 0.09 0.05 0.05 0.07 0.09 0.09 0.06 0.05 0.05 0.03 0.01 0.00 0.00 0.00 0.00 0.00 0.00 0.00 0.00 0.00 0.00 0.00 0.00 0.00 0.00 0.00 0.00 0.00 0.00 0.00 0.00 0.00 0.00 0.00 0.00 0.00 0.00 0.00 0.00 0.00 0.01 0.01 0.01 0.01 0.00 0.00 0.01 0.01 0.01 0.01 0.02 0.01 0.01 0.03 0.14 0.03 0.09 0.02 0.03 0.06 0.12
0.00 0.00 0.01 0.04 0.03 0.01 0.00 0.00 0.00 0.00 0.00 0.00 0.00 0.00 0.00 0.00 0.00 0.00 0.01 0.02 0.02 0.03 0.04 0.06 0.09 0.12 0.12 0.09 0.06 0.06 0.08 0.08 0.06 0.06 0.05 0.03 0.01 0.00 0.00 0.00 0.00 0.00 0.00 0.00 0.00 0.00 0.00 0.00 0.00 0.00 0.00 0.00 0.00 0.01 0.01 0.00 0.00 0.01 0.00 0.00 0.00 0.00 0.00 0.00 0.00 0.00 0.00 0.01 0.01 0.01 0.02 0.01 0.01 0.02 0.02 0.04 0.02 0.01 0.05 0.13 0.04 0.05 0.03 0.12 0.07 0.14
0.00 0.03 0.02 0.01 0.07 0.05 0.10 0.03 0.02 0.04 0.02 0.03 0.00 0.01 0.02 0.02 0.03 0.07 0.03 0.02 0.03 0.04 0.05 0.07 0.09 0.09 0.09 0.10 0.12 0.12 0.13 0.09 0.05 0.05 0.05 0.02 0.01 0.01 0.00 0.00 0.01 0.01 0.01 0.01 0.01 0.01 0.01 0.02 0.01 0.03 0.04 0.03 0.06 0.01 0.02 0.00 0.00 0.02 0.00 0.00 0.00 0.00 0.00 0.00 0.01 0.01 0.01 0.01 0.01 0.01 0.01 0.03 0.02 0.08 0.21 0.05 0.03 0.02 0.02 0.01 0.02 0.05 0.03 0.22 0.08 0.05
0.01 0.01 0.03 0.05 0.05 0.03 0.03 0.02 0.04 0.09 0.08 0.03 0.04 0.02 0.01 0.01 0.03 0.03 0.03 0.04 0.05 0.04 0.11 0.07 0.07 0.04 0.04 0.08 0.06 0.04 0.03 0.03 0.04 0.04 0.06 0.06 0.02 0.05 0.02 0.03 0.02 0.02 0.02 0.01 0.02 0.03 0.03 0.02 0.01 0.01 0.02 0.02 0.01 0.01 0.02 0.02 0.00 0.00 0.00 0.01 0.00 0.00 0.00 0.00 0.00 0.01 0.01 0.01 0.01 0.01 0.01 0.02 0.02 0.03 0.03 0.04 0.04 0.04 0.03 0.05 0.02 0.01 0.01 0.04 0.03 0.05